Regional Weather Roundup
Issued by NWS Binghamton, NY

Current Version | Previous Version | Text Only | Print | Product List | Glossary On
Versions: 1 2 3 4 5 6 7 8 9 10 11 12 13 14 15 16 17 18 19 20 21 22 23 24 25 26 27 28 29 30 31 32 33 34 35 36 37 38 39 40 41 42 43 44 45 46 47 48 49 50
724
ASUS41 KBGM 162210
RWRBGM

REGIONAL WEATHER ROUNDUP
NATIONAL WEATHER SERVICE BINGHAMTON NY
600 PM EDT SUN MAY 16 2021

Note: "fair" indicates few or no clouds below 12,000 feet with no
significant weather and/or obstructions to visibility.

* = Station(s) that does not report precipitation, such as rain,
snow, etc, also no thunder or fog.

NYZ009-015>018-022>025-036-037-044>046-055>057-062-162300
...Central New York...

CITY           SKY/WX    TMP DP  RH WIND       PRES   REMARKS
Binghamton     CLOUDY    58  43  57 S7        30.25R
Cortland       CLOUDY    64  36  34 SW3       30.22R
Dansville      CLOUDY    67  40  37 CALM      30.22S
Elmira         CLOUDY    67  42  40 N7        30.21R
Endicott       MOCLDY    61  48  63 SE3       30.24R
Ithaca         LGT RAIN  59  45  59 NE6       30.23R
Hamilton       MOSUNNY   64  34  32 W6        30.21S
Monticello     PTSUNNY   61  43  51 VRB3      30.26R
Norwich        MOSUNNY   68  37  32 S5        30.21S
Oneonta        SUNNY     64  36  34 NW3       30.23S
Penn Yan       CLOUDY    63  45  51 E15G21    30.24R
Rome           MOSUNNY   72  35  25 N5        30.18S
Seneca Falls   CLEAR     66  37  34 SW8       30.23R
Sidney         MOSUNNY   64  39  39 SW3       30.22R
Skaneateles    MOCLDY    66  39  37 VRB6G13   30.23R
Syracuse       PTSUNNY   73  36  25 S12G17    30.20R
$$

PAZ038>040-043-044-047-048-072-162300
...Northeast Pennsylvania...

CITY           SKY/WX    TMP DP  RH WIND       PRES   REMARKS
Hazleton       CLOUDY    64  36  34 CALM      30.27S
Scranton       CLOUDY    60  48  64 N6        30.26S
Towanda        PTCLDY    63  43  48 SE12G20   30.25R
$$
&&
KEY
WCI = Wind Chill Index
VSB = Visibility
HX  = Heat Index
$$




USA.gov is the U.S. government's official web portal to all federal, state and local government web resources and services.